This is the latest recevied weather packets stored in our database for station/object KB0BS-13. If no packets are shown the sender has not sent any weather packets the latest 10 day(s).
| Time | Temp. | Humidity | Pressure | Rain* | Wind** | Luminosity | Snow |
|---|---|---|---|---|---|---|---|
| 1777764582 | 7.22° C | 38% | 1014.5 hPa | 0 mm | - | 58 W/m² | - |
| 1777764278 | 7.78° C | 37% | 1014.4 hPa | 0 mm | - | 65 W/m² | - |
| 1777763975 | 7.78° C | 38% | 1014.5 hPa | 0 mm | - | 73 W/m² | - |
| 1777763672 | 7.78° C | 37% | 1014.4 hPa | 0 mm | - | 81 W/m² | - |
| 1777763371 | 7.78° C | 35% | 1014.5 hPa | 0 mm | - | 91 W/m² | - |
| 1777763068 | 7.78° C | 35% | 1014.5 hPa | 0 mm | - | 100 W/m² | - |
| 1777762766 | 7.78° C | 38% | 1014.5 hPa | 0 mm | - | 111 W/m² | - |
| 1777762462 | 7.78° C | 34% | 1014.5 hPa | 0 mm | - | 121 W/m² | - |
| 1777762159 | 7.78° C | 36% | 1014.7 hPa | 0 mm | - | 134 W/m² | - |
| 1777761855 | 7.78° C | 37% | 1014.7 hPa | 0 mm | - | 145 W/m² | - |
| 1777761552 | 7.78° C | 35% | 1014.8 hPa | 0 mm | - | 157 W/m² | - |
| 1777761250 | 8.33° C | 35% | 1014.5 hPa | 0 mm | - | 170 W/m² | - |
| 1777760948 | 7.78° C | 34% | 1014.8 hPa | 0 mm | - | 182 W/m² | - |
| 1777760645 | 8.33° C | 33% | 1014.7 hPa | 0 mm | - | 195 W/m² | - |
| 1777760340 | 8.33° C | 33% | 1014.8 hPa | 0 mm | - | 208 W/m² | - |
| 1777760037 | 8.33° C | 36% | 1014.8 hPa | 0 mm | - | 221 W/m² | - |
| 1777759734 | 8.33° C | 34% | 1014.8 hPa | 0 mm | - | 234 W/m² | - |
| 1777759430 | 8.89° C | 33% | 1014.8 hPa | 0 mm | - | 249 W/m² | - |
| 1777759127 | 8.33° C | 33% | 1014.6 hPa | 0 mm | - | 260 W/m² | - |
| 1777758824 | 8.33° C | 36% | 1014.8 hPa | 0 mm | - | 276 W/m² | - |
| 1777758521 | 8.89° C | 34% | 1014.7 hPa | 0 mm | - | 294 W/m² | - |
| 1777758217 | 8.89° C | 37% | 1014.8 hPa | 0 mm | - | 305 W/m² | - |
| 1777757915 | 8.89° C | 33% | 1014.9 hPa | 0 mm | - | 318 W/m² | - |
| 1777757612 | 8.89° C | 33% | 1015 hPa | 0 mm | - | 334 W/m² | - |
| 1777757311 | 8.89° C | 39% | 1014.9 hPa | 0 mm | - | 351 W/m² | - |
* Rain latest hour (hover to see other rain measurements)
** Current wind speed in m/s (hover to see current wind gust speed)